• In Belarus
  • List of Countries
  • For 7 days
  • Water Temperature
  • Satellite Maps
  • Weather Map
  • Weather Widgets
  • user-avatar
    Login

    Hourly Weather Shkoder

    Today, 15 December, Friday

    Time Temperature Precipitation Wind Pressure Humidity
    00:00 +8°C° 0.4 mm 4 mps 738 mmHg 92%
    01:00 +8°C° 0.4 mm 4 mps 738 mmHg 92%
    02:00 +8°C° 0.3 mm 4 mps 737 mmHg 91%
    03:00 +8°C° 0.3 mm 4 mps 737 mmHg 90%
    04:00 +10°C° 0.3 mm 4 mps 737 mmHg 89%
    05:00 +10°C° 0.2 mm 4 mps 737 mmHg 89%
    06:00 +10°C° 0.2 mm 4 mps 736 mmHg 89%
    07:00 +10°C° 0.2 mm 4 mps 736 mmHg 89%
    08:00 +9°C° 0.8 mm 5 mps 736 mmHg 89%
    09:00 +9°C° 0.8 mm 5 mps 736 mmHg 90%
    10:00 +9°C° 0.8 mm 5 mps 736 mmHg 91%
    11:00 +9°C° 2.1 mm 6 mps 735 mmHg 92%
    12:00 +10°C° 2.1 mm 6 mps 735 mmHg 93%
    13:00 +10°C° 2.1 mm 7 mps 734 mmHg 93%
    14:00 +10°C° 2.5 mm 6 mps 734 mmHg 94%
    15:00 +10°C° 2.5 mm 6 mps 734 mmHg 94%
    16:00 +10°C° 2.5 mm 6 mps 733 mmHg 94%
    17:00 +10°C° 1.9 mm 7 mps 733 mmHg 94%
    18:00 +10°C° 1.9 mm 7 mps 733 mmHg 94%
    19:00 +10°C° 1.9 mm 8 mps 733 mmHg 94%
    20:00 +10°C° 1.9 mm 8 mps 733 mmHg 93%
    21:00 +10°C° 1.9 mm 8 mps 732 mmHg 93%
    22:00 +10°C° 1.9 mm 8 mps 732 mmHg 93%
    23:00 +10°C° 2.3 mm 8 mps 732 mmHg 93%

    Tomorrow, 16 December, Saturday

    Time Temperature Precipitation Wind Pressure Humidity
    00:00 +10°C° 2.3 mm 8 mps 731 mmHg 93%
    01:00 +10°C° 2.3 mm 8 mps 731 mmHg 92%
    02:00 +10°C° 2.4 mm 8 mps 731 mmHg 92%
    03:00 +10°C° 2.4 mm 9 mps 730 mmHg 92%
    04:00 +11°C° 2.4 mm 9 mps 730 mmHg 93%
    05:00 +10°C° 3.9 mm 8 mps 730 mmHg 93%
    06:00 +10°C° 3.9 mm 8 mps 730 mmHg 93%
    07:00 +10°C° 3.9 mm 7 mps 730 mmHg 93%
    08:00 +10°C° 5 mm 7 mps 730 mmHg 94%
    09:00 +10°C° 5 mm 6 mps 731 mmHg 94%
    10:00 +10°C° 5 mm 5 mps 731 mmHg 94%
    11:00 +10°C° 3.8 mm 5 mps 731 mmHg 93%
    12:00 +11°C° 3.8 mm 4 mps 731 mmHg 91%
    13:00 +11°C° 3.8 mm 3 mps 731 mmHg 90%
    14:00 +10°C° 1.5 mm 3 mps 731 mmHg 89%
    15:00 +10°C° 1.5 mm 2 mps 731 mmHg 89%
    16:00 +9°C° 1.5 mm 2 mps 732 mmHg 89%
    17:00 +9°C° 0.4 mm 2 mps 732 mmHg 89%
    18:00 +9°C° 0.4 mm 2 mps 732 mmHg 89%
    19:00 +8°C° 0.4 mm 2 mps 733 mmHg 90%
    20:00 +8°C° 0.3 mm 2 mps 733 mmHg 89%
    21:00 +8°C° 0.3 mm 2 mps 733 mmHg 88%
    22:00 +8°C° 0.3 mm 2 mps 734 mmHg 88%
    23:00 +8°C° 0.6 mm 2 mps 734 mmHg 88%

    Day after tomorrow, 17 December, Sunday

    Time Temperature Precipitation Wind Pressure Humidity
    00:00 +7°C° 0.6 mm 3 mps 734 mmHg 89%
    01:00 +7°C° 0.6 mm 3 mps 734 mmHg 90%
    02:00 +7°C° 0.3 mm 2 mps 734 mmHg 89%
    03:00 +7°C° 0.3 mm 2 mps 735 mmHg 89%
    04:00 +6°C° 0.3 mm 2 mps 735 mmHg 89%
    05:00 +6°C° 0.3 mm 2 mps 735 mmHg 90%
    06:00 +6°C° 0.3 mm 2 mps 736 mmHg 90%
    07:00 +6°C° 0.3 mm 1 mps 736 mmHg 90%
    08:00 +6°C° 0.5 mm 2 mps 737 mmHg 87%
    09:00 +7°C° 0.5 mm 2 mps 737 mmHg 84%
    10:00 +7°C° 0.5 mm 2 mps 738 mmHg 81%
    11:00 +7°C° 0.7 mm 2 mps 738 mmHg 80%
    12:00 +7°C° 0.7 mm 2 mps 738 mmHg 79%
    13:00 +7°C° 0.7 mm 3 mps 738 mmHg 79%
    14:00 +7°C° 0.9 mm 3 mps 739 mmHg 81%
    15:00 +5°C° 0.9 mm 4 mps 739 mmHg 84%
    16:00 +4°C° 0.9 mm 4 mps 739 mmHg 86%
    17:00 +3°C° 0.8 mm 5 mps 740 mmHg 85%
    18:00 +2°C° 0.8 mm 5 mps 741 mmHg 84%
    19:00 +2°C° 0.8 mm 6 mps 741 mmHg 83%
    20:00 +2°C° 0.8 mm 5 mps 742 mmHg 82%
    21:00 +1°C° 0.8 mm 5 mps 743 mmHg 82%
    22:00 +1°C° 0.8 mm 5 mps 743 mmHg 82%
    23:00 +1°C° 0.7 mm 5 mps 743 mmHg 83%

    18 December, Monday

    Time Temperature Precipitation Wind Pressure Humidity
    00:00 0°C° 0.7 mm 5 mps 744 mmHg 84%
    01:00 0°C° 0.7 mm 4 mps 744 mmHg 86%
    02:00 0°C° 0.4 mm 4 mps 744 mmHg 85%
    03:00 0°C° 0.4 mm 4 mps 745 mmHg 85%
    04:00 0°C° 0.4 mm 4 mps 745 mmHg 84%
    05:00 0°C° 0.1 mm 3 mps 745 mmHg 84%
    06:00 0°C° 0.1 mm 3 mps 746 mmHg 84%
    07:00 0°C° 0.1 mm 3 mps 746 mmHg 84%
    08:00 0°C° 0 mm 3 mps 747 mmHg 81%
    09:00 +1°C° 0 mm 3 mps 747 mmHg 78%
    10:00 +2°C° 0 mm 3 mps 747 mmHg 75%
    11:00 +2°C° 0 mm 3 mps 747 mmHg 73%
    12:00 +3°C° 0 mm 3 mps 747 mmHg 70%
    13:00 +4°C° 0 mm 2 mps 746 mmHg 68%
    14:00 +3°C° 0 mm 2 mps 746 mmHg 71%
    15:00 +2°C° 0 mm 2 mps 746 mmHg 73%
    16:00 +2°C° 0 mm 1 mps 746 mmHg 75%
    17:00 +2°C° 0 mm 1 mps 746 mmHg 76%
    18:00 -1°C° 0 mm 2 mps 746 mmHg 76%
    19:00 -1°C° 0 mm 2 mps 746 mmHg 77%
    20:00 -1°C° 0 mm 2 mps 747 mmHg 75%
    21:00 -1°C° 0 mm 2 mps 747 mmHg 73%
    22:00 -1°C° 0 mm 2 mps 747 mmHg 71%
    23:00 -1°C° 0 mm 2 mps 747 mmHg 70%

    19 December, Tuesday

    Time Temperature Precipitation Wind Pressure Humidity
    00:00 -1°C° 0 mm 2 mps 747 mmHg 68%
    01:00 -1°C° 0 mm 2 mps 747 mmHg 67%
    02:00 -1°C° 0 mm 2 mps 747 mmHg 66%
    03:00 -1°C° 0 mm 2 mps 747 mmHg 66%
    04:00 -1°C° 0 mm 2 mps 747 mmHg 65%
    05:00 -1°C° 0 mm 2 mps 747 mmHg 66%
    06:00 -1°C° 0 mm 2 mps 747 mmHg 67%
    07:00 -1°C° 0 mm 2 mps 747 mmHg 68%
    08:00 +2°C° 0 mm 2 mps 748 mmHg 68%
    09:00 +3°C° 0 mm 2 mps 748 mmHg 69%
    10:00 +4°C° 0 mm 2 mps 748 mmHg 69%
    11:00 +5°C° 0 mm 2 mps 748 mmHg 69%
    12:00 +5°C° 0 mm 2 mps 748 mmHg 69%
    13:00 +7°C° 0 mm 1 mps 747 mmHg 69%
    14:00 +6°C° 0 mm 1 mps 747 mmHg 71%
    15:00 +4°C° 0 mm 2 mps 747 mmHg 74%
    16:00 +3°C° 0 mm 2 mps 747 mmHg 76%
    17:00 +3°C° 0 mm 2 mps 748 mmHg 77%
    18:00 +2°C° 0 mm 2 mps 748 mmHg 78%
    19:00 +2°C° 0 mm 2 mps 748 mmHg 79%
    20:00 +1°C° 0 mm 3 mps 748 mmHg 79%
    21:00 0°C° 0 mm 3 mps 748 mmHg 79%
    22:00 0°C° 0 mm 3 mps 748 mmHg 79%
    23:00 0°C° 0 mm 3 mps 748 mmHg 79%

    20 December, Wednesday

    Time Temperature Precipitation Wind Pressure Humidity
    00:00 0°C° 0 mm 3 mps 748 mmHg 80%
    01:00 +1°C° 0 mm 2 mps 747 mmHg 80%
    02:00 +1°C° 0 mm 2 mps 747 mmHg 80%
    03:00 +1°C° 0 mm 2 mps 747 mmHg 80%
    04:00 +1°C° 0 mm 2 mps 747 mmHg 80%
    05:00 +1°C° 0 mm 2 mps 747 mmHg 80%
    06:00 +1°C° 0 mm 2 mps 747 mmHg 80%
    07:00 +1°C° 0 mm 2 mps 747 mmHg 81%
    08:00 +2°C° 0.1 mm 2 mps 747 mmHg 78%
    09:00 +2°C° 0.1 mm 3 mps 747 mmHg 76%
    10:00 +3°C° 0.1 mm 3 mps 747 mmHg 74%
    11:00 +3°C° 0.1 mm 3 mps 747 mmHg 72%
    12:00 +4°C° 0.1 mm 3 mps 747 mmHg 71%
    13:00 +4°C° 0.1 mm 3 mps 746 mmHg 69%
    14:00 +3°C° 0.1 mm 4 mps 747 mmHg 72%
    15:00 +1°C° 0.1 mm 4 mps 747 mmHg 75%
    16:00 +1°C° 0.1 mm 4 mps 747 mmHg 77%
    17:00 0°C° 0.1 mm 4 mps 748 mmHg 78%
    18:00 -1°C° 0.1 mm 5 mps 748 mmHg 78%
    19:00 -1°C° 0.1 mm 5 mps 749 mmHg 79%
    20:00 -2°C° 0 mm 5 mps 749 mmHg 78%
    21:00 -2°C° 0 mm 5 mps 749 mmHg 76%
    22:00 -2°C° 0 mm 5 mps 750 mmHg 75%
    23:00 -2°C° 0 mm 5 mps 750 mmHg 75%
    Show more